Location: Austin
(30.3000°N, 97.7500°W)
Time: 23:36:05
(UTC-06:00)

Cosmos 1891 Rocket - Pass Details

Date: 04 November 2025
Orbit: 934 x 1016 km, 82.9° (Epoch: 15 November)

Event Time Altitude Azimuth Distance (km) Brightness Sun altitude
Rises 19:18:15 0° 174° (S) 3,673 7.5 -21.4°
Reaches altitude 10° 19:20:46 10° 170° (S) 2,740 6.8 -21.9°
Maximum altitude 19:26:57 60° 92° (E) 1,137 4.5 -23.2°
Drops below altitude 10° 19:33:15 10° 14° (NNE) 2,796 6.7 -24.6°
Sets 19:35:51 0° 11° (N) 3,754 7.4 -25.2°
